Location: Aldenham
(51.6667°N, 0.3500°W)
Time: 18:55:53
(UTC+00:00)

A-11 Canister half - Pass Details

Date: 25 February 2026
Orbit: 1512 x 1687 km, 47.2° (Epoch: 8 March)

Event Time Altitude Azimuth Distance (km) Brightness Sun altitude
Rises 02:24:38 0° 287° (WNW) 4,897 - -39.8°
Reaches altitude 10° 02:28:48 10° 273° (W) 3,880 - -39.4°
Maximum altitude 02:35:29 21° 230° (SW) 3,046 - -38.6°
Drops below altitude 10° 02:42:01 10° 186° (S) 3,773 - -37.9°
Sets 02:46:02 0° 171° (S) 4,724 - -37.4°
